Probability
0 0 0 0 0 0 0 0 0 0 3 3 3 3 3 3 3 0 3 6 10 13 13 16 23 19 19 19 19 19 13 10 10 10 16 19 13 26 26 23 19 23 29
0 0 0 0 0 0 0 0 0 0 3 3 3 3 3 3 3 3 0 3 13 13 10 19 23 16 16 19 10 13 13 10 10 10 13 13 16 19 23 19 16 13 16
0 0 0 3 3 0 0 0 0 0 3 3 3 3 3 3 0 0 6 3 6 13 13 13 16 16 13 10 6 10 13 10 10 10 10 13 13 13 19 23 19 16 16
0 0 0 0 0 0 0 0 0 0 3 3 3 3 3 3 0 0 3 6 6 6 6 3 10 10 10 10 10 10 10 10 10 13 13 10 10 10 16 10 13 10 16
0 0 0 0 0 0 0 0 0 0 3 3 3 3 3 3 0 0 0 3 6 6 6 3 0 3 6 13 13 10 10 10 10 10 10 13 16 10 13 10 10 10 10
0 0 0 0 0 0 3 0 0 0 3 3 0 0 3 3 3 6 3 6 6 3 3 3 3 0 3 10 10 10 10 10 10 6 6 6 13 13 13 10 10 10 6
0 0 0 0 0 0 0 0 0 0 0 0 0 0 3 3 3 3 6 6 3 3 3 0 6 3 3 3 3 6 6 6 10 6 6 6 6 13 13 6 6 6 6
0 0 0 0 0 0 3 0 3 0 0 0 0 0 0 3 3 0 0 0 3 3 0 0 0 0 0 6 0 3 3 3 3 3 3 6 6 10 10 6 6 6 6
0 0 0 0 0 0 3 3 3 3 3 0 0 0 0 3 0 0 0 0 0 0 0 0 0 0 0 0 0 0 0 0 3 3 0 3 6 10 10 6 6 3 0
0 0 0 0 0 0 0 0 3 3 3 3 3 3 0 0 0 0 0 0 0 0 0 0 0 0 0 0 0 0 0 0 0 0 0 6 6 6 6 10 6 0 0
0 0 0 0 0 0 0 0 0 0 3 3 3 3 3 3 0 3 0 0 0 0 0 0 0 0 0 0 0 0 0 0 0 0 3 6 6 3 6 10 6 0 0
0 0 0 0 0 0 0 0 0 0 0 3 3 3 3 3 3 3 0 0 0 0 0 0 0 0 0 0 0 0 0 0 0 0 3 3 6 3 3 3 3 0 0
0 0 0 0 0 0 0 0 0 0 0 0 0 0 3 3 3 3 3 3 0 0 0 0 0 0 0 0 0 0 0 0 0 0 0 0 0 3 3 6 0 0 0
0 0 0 0 0 0 0 0 0 0 0 0 0 0 0 0 0 3 3 3 0 0 0 0 0 0 0 0 0 0 0 0 0 0 0 0 0 0 0 0 0 0 3
0 0 0 0 0 0 0 0 0 0 0 0 0 0 0 0 0 0 0 0 0 0 0 0 0 0 0 0 0 0 0 0 0 0 0 0 0 0 0 0 0 0 0
0 0 0 0 0 0 0 0 0 0 0 0 0 0 0 0 0 0 0 0 0 0 0 0 0 0 0 0 0 0 0 0 0 0 0 0 0 0 0 0 0 0 0
0 0 0 0 0 0 0 0 0 0 0 0 0 0 0 0 0 0 0 0 0 0 0 0 0 0 0 0 0 0 0 0 0 0 0 0 0 0 0 0 0 0 0
0 0 0 0 0 0 0 0 0 0 0 0 0 0 0 0 0 0 0 0 0 0 0 0 0 0 0 0 0 0 0 0 0 0 0 0 0 0 0 0 0 0 0
0 0 0 0 0 0 0 0 0 0 0 0 0 0 0 0 0 0 0 0 0 0 0 0 0 0 0 0 0 0 0 0 0 0 0 0 0 0 0 0 0 0 0
0 0 0 0 0 0 0 0 0 0 0 0 0 0 0 0 0 0 0 0 0 0 0 0 0 0 0 0 0 0 0 0 0 0 0 0 0 0 0 0 0 0 0
0 0 0 0 0 3 0 0 0 0 0 0 0 0 0 0 0 0 0 0 0 0 3 0 0 0 0 0 0 0 0 0 0 0 0 0 0 0 0 0 0 0 0
0 0 0 3 3 0 0 0 0 0 0 0 0 0 0 0 0 0 0 0 0 0 0 0 3 0 0 3 0 0 0 0 0 0 0 0 0 0 0 0 0 0 0
0 0 3 3 3 0 0 0 0 0 0 0 0 0 0 0 0 0 0 0 0 0 0 0 0 0 0 0 0 0 0 0 0 0 0 0 0 0 0 0 0 0 0
0 3 3 3 0 0 0 0 0 0 0 0 0 0 0 0 0 0 0 0 0 0 0 0 0 0 0 0 0 0 0 0 0 0 0 0 0 0 0 0 0 0 0
0 3 3 3 0 0 0 0 0 0 0 0 0 0 0 0 0 0 0 0 0 0 0 0 0 0 0 0 0 0 0 0 0 0 0 0 0 0 0 0 0 0 0
3 3 3 3 0 0 0 0 0 0 0 0 0 0 0 0 0 0 0 0 0 0 0 0 0 0 0 0 0 0 0 0 0 0 0 0 0 0 0 0 0 0 0
Height
5894 5893 5892 5890 5889 5887 5886 5885 5884 5883 5882 5881 5880 5880 5879 5879 5878 5878 5877 5877 5876 5876 5875 5875 5874 5874 5874 5874 5874 5874 5874 5874 5874 5874 5874 5873 5873 5873 5874 5874 5875 5876 5876
5893 5892 5891 5890 5889 5887 5886 5885 5884 5883 5882 5881 5880 5880 5879 5878 5878 5877 5876 5875 5875 5874 5873 5873 5872 5872 5872 5872 5872 5872 5872 5872 5872 5871 5871 5870 5869 5869 5870 5871 5872 5873 5873
5893 5892 5891 5890 5888 5887 5886 5885 5884 5883 5882 5881 5880 5879 5878 5877 5877 5876 5875 5874 5873 5872 5871 5871 5871 5870 5870 5870 5870 5870 5869 5869 5869 5868 5867 5866 5865 5864 5865 5867 5868 5869 5870
5892 5891 5890 5889 5888 5887 5885 5884 5883 5882 5881 5881 5880 5879 5878 5877 5876 5875 5873 5872 5872 5871 5870 5869 5869 5868 5868 5868 5868 5868 5867 5867 5866 5865 5864 5862 5860 5860 5861 5863 5865 5866 5867
5891 5890 5889 5888 5887 5886 5885 5884 5883 5882 5881 5880 5879 5878 5877 5876 5874 5873 5872 5871 5870 5869 5868 5867 5867 5867 5866 5866 5865 5865 5865 5864 5864 5863 5861 5859 5857 5857 5858 5860 5862 5863 5864
5890 5889 5888 5887 5886 5885 5884 5883 5882 5881 5880 5879 5878 5877 5876 5875 5873 5872 5871 5870 5869 5868 5867 5866 5865 5865 5864 5864 5863 5863 5862 5862 5861 5860 5859 5858 5856 5856 5856 5858 5859 5859 5860
5889 5888 5887 5886 5885 5885 5884 5882 5882 5881 5880 5878 5877 5876 5875 5874 5872 5871 5869 5868 5867 5866 5865 5864 5864 5863 5862 5861 5861 5860 5859 5858 5858 5857 5856 5856 5855 5855 5855 5855 5856 5856 5856
5887 5887 5886 5885 5884 5884 5883 5882 5881 5880 5879 5878 5877 5875 5874 5873 5871 5870 5868 5867 5866 5865 5864 5863 5862 5861 5860 5859 5858 5857 5856 5855 5855 5854 5854 5853 5852 5852 5852 5852 5852 5852 5852
5886 5886 5885 5884 5883 5882 5881 5880 5880 5878 5877 5876 5875 5874 5873 5871 5870 5869 5867 5865 5864 5863 5862 5861 5860 5858 5857 5856 5855 5854 5853 5852 5851 5851 5850 5850 5850 5849 5849 5848 5848 5848 5848
5885 5884 5883 5883 5882 5881 5880 5879 5878 5877 5876 5874 5873 5872 5871 5869 5868 5867 5866 5864 5862 5861 5860 5858 5857 5856 5854 5853 5852 5851 5850 5848 5847 5846 5846 5846 5846 5845 5845 5845 5844 5844 5844
5883 5882 5881 5881 5880 5879 5878 5877 5876 5875 5874 5873 5872 5870 5869 5867 5866 5865 5863 5862 5860 5859 5857 5856 5854 5853 5851 5850 5849 5848 5846 5845 5844 5843 5843 5842 5842 5841 5841 5841 5840 5840 5839
5880 5880 5879 5878 5878 5877 5876 5875 5874 5873 5872 5871 5869 5868 5867 5865 5864 5862 5861 5859 5858 5856 5854 5853 5852 5850 5848 5847 5845 5844 5843 5842 5841 5840 5839 5839 5838 5837 5837 5837 5836 5835 5835
5878 5877 5877 5876 5876 5875 5874 5873 5872 5871 5870 5869 5867 5866 5864 5863 5861 5860 5858 5856 5855 5853 5852 5850 5849 5847 5845 5844 5842 5841 5839 5838 5837 5836 5835 5834 5834 5833 5832 5832 5831 5831 5830
5875 5875 5874 5874 5873 5872 5871 5871 5869 5868 5867 5866 5864 5863 5861 5860 5858 5857 5855 5854 5852 5851 5849 5847 5846 5844 5842 5840 5839 5837 5836 5834 5833 5832 5831 5830 5829 5828 5828 5827 5826 5825 5825
5872 5872 5871 5871 5870 5869 5869 5868 5866 5865 5864 5863 5861 5860 5858 5857 5855 5854 5852 5851 5850 5848 5846 5844 5842 5840 5838 5837 5835 5833 5832 5830 5829 5828 5827 5825 5824 5823 5822 5821 5820 5819 5818
5869 5869 5868 5868 5867 5866 5865 5864 5863 5862 5861 5859 5858 5856 5855 5853 5852 5850 5849 5847 5846 5844 5842 5840 5838 5837 5835 5833 5831 5829 5827 5826 5824 5823 5822 5820 5819 5818 5816 5815 5814 5813 5812
5866 5865 5865 5864 5863 5863 5862 5861 5859 5858 5857 5856 5854 5853 5851 5850 5848 5846 5845 5843 5841 5840 5838 5836 5834 5832 5831 5829 5827 5825 5823 5821 5819 5818 5816 5814 5813 5812 5810 5809 5807 5806 5805
5862 5862 5861 5860 5860 5859 5858 5857 5855 5854 5853 5852 5850 5849 5847 5846 5844 5842 5841 5839 5837 5835 5834 5832 5830 5828 5826 5824 5822 5820 5818 5816 5814 5812 5810 5808 5806 5805 5803 5801 5799 5798 5797
5858 5858 5857 5856 5855 5854 5853 5852 5851 5850 5849 5847 5846 5845 5843 5841 5840 5838 5836 5834 5833 5831 5829 5827 5825 5822 5820 5818 5816 5814 5812 5810 5808 5806 5803 5801 5799 5797 5795 5793 5791 5789 5788
5854 5853 5853 5852 5851 5850 5849 5848 5847 5845 5844 5843 5841 5840 5838 5836 5835 5833 5831 5829 5827 5825 5823 5821 5819 5817 5814 5812 5810 5808 5806 5804 5801 5799 5796 5794 5792 5790 5787 5785 5783 5780 5778
5850 5849 5848 5847 5846 5845 5844 5843 5842 5840 5839 5838 5836 5835 5833 5831 5829 5828 5826 5824 5822 5819 5817 5815 5813 5810 5808 5806 5804 5801 5799 5797 5794 5791 5789 5787 5784 5782 5779 5776 5774 5771 5769
5845 5844 5844 5843 5842 5840 5839 5838 5837 5835 5834 5832 5831 5829 5827 5826 5824 5822 5820 5818 5816 5813 5811 5809 5806 5804 5801 5799 5796 5794 5791 5788 5786 5784 5781 5778 5775 5773 5770 5767 5764 5761 5759
5840 5839 5838 5837 5836 5835 5834 5833 5831 5830 5828 5826 5825 5823 5821 5819 5818 5816 5813 5811 5809 5807 5804 5802 5799 5797 5794 5791 5789 5786 5783 5780 5777 5774 5771 5769 5766 5763 5759 5756 5753 5750 5747
5834 5833 5832 5831 5830 5829 5828 5827 5826 5824 5822 5821 5819 5817 5815 5813 5811 5809 5806 5804 5802 5799 5797 5794 5792 5789 5786 5783 5780 5777 5774 5771 5768 5765 5761 5759 5755 5752 5748 5745 5741 5738 5735
5828 5828 5827 5826 5825 5824 5823 5821 5820 5818 5816 5814 5812 5810 5808 5806 5804 5801 5799 5797 5794 5792 5789 5786 5783 5780 5777 5774 5771 5767 5764 5761 5758 5755 5751 5747 5744 5740 5737 5733 5728 5725 5721
5823 5822 5821 5820 5819 5818 5817 5815 5814 5812 5810 5808 5805 5803 5801 5798 5796 5793 5791 5788 5786 5783 5780 5777 5774 5771 5768 5764 5761 5757 5753 5750 5746 5743 5739 5735 5731 5727 5724 5720 5716 5712 5708
Wind_Speed
4 5 5 6 6 5 5 4 4 3 3 3 3 3 3 4 5 5 6 6 7 7 8 8 9 9 10 10 10 11 11 12 13 13 13 14 14 14 15 15 15 15 15
4 4 5 6 5 5 5 4 4 3 3 3 3 3 3 4 5 5 6 6 6 6 7 8 8 8 9 10 10 10 11 12 12 13 14 15 15 16 16 16 16 16 16
4 4 5 6 6 5 5 4 4 4 3 3 3 4 4 4 5 6 6 6 6 6 7 8 8 8 9 10 10 11 10 11 12 13 15 16 16 16 16 16 15 16 16
4 4 5 6 6 6 5 5 5 4 4 4 4 4 5 5 6 6 7 7 7 7 8 8 9 9 10 10 11 12 11 12 12 13 13 14 15 15 15 16 16 16 16
5 5 5 5 6 6 5 5 5 4 4 5 5 5 5 6 6 6 7 7 8 8 8 8 9 10 10 10 10 11 12 12 13 13 13 14 13 13 14 15 16 17 17
5 5 5 5 5 6 6 5 4 4 5 5 5 5 6 6 7 7 7 8 8 8 8 9 10 10 9 10 10 11 12 13 13 13 13 13 13 13 14 15 16 17 17
5 5 6 5 5 6 6 5 5 5 5 5 6 6 6 7 7 7 7 8 8 8 8 9 9 10 10 11 12 13 13 13 14 14 14 14 14 14 15 15 16 17 18
6 6 6 6 6 6 6 6 6 6 6 6 7 7 7 7 7 7 8 8 8 8 9 9 10 10 11 12 13 14 14 15 15 15 15 15 15 15 16 16 17 18 19
7 7 6 6 6 6 6 6 7 7 7 7 7 8 8 8 8 8 8 9 9 9 9 10 11 11 11 12 13 14 15 15 16 16 16 16 16 17 17 17 18 19 19
7 7 7 7 7 7 7 7 8 8 8 8 8 8 9 9 9 9 9 9 10 10 10 10 11 12 13 13 13 14 14 15 15 15 16 17 17 17 17 18 19 19 20
8 8 8 8 8 8 8 8 8 8 8 9 9 9 9 9 10 10 10 10 10 10 11 11 12 12 13 14 14 14 14 14 14 15 16 17 18 18 17 18 19 20 20
9 9 9 9 8 9 9 9 9 9 9 10 10 10 10 10 10 11 11 11 11 11 11 12 13 13 13 14 15 15 15 15 15 16 17 17 17 17 18 18 19 19 20
10 10 10 10 10 10 10 10 10 10 11 11 11 11 12 12 12 12 12 12 12 12 12 13 13 13 14 13 14 15 15 16 16 16 17 18 18 18 19 20 20 21 21
11 11 11 11 11 11 11 11 11 11 12 12 13 13 13 13 13 13 12 12 12 13 13 14 14 15 15 14 15 15 16 16 17 17 18 18 19 19 20 20 21 22 23
12 11 11 11 11 11 12 12 12 13 13 13 13 13 14 14 14 13 13 13 14 14 15 15 15 16 16 16 15 16 16 17 18 18 18 19 20 20 21 22 23 24 25
12 12 12 12 12 12 12 13 13 13 14 14 14 14 14 14 14 14 14 14 15 15 15 16 16 17 17 18 18 18 18 18 19 19 20 21 21 22 23 24 25 26 26
12 13 13 12 13 13 14 14 14 15 15 15 15 15 15 15 15 15 15 16 16 17 17 17 18 18 19 19 20 20 20 20 21 21 22 23 24 25 26 26 27 27 28
13 13 14 14 14 14 14 14 15 15 15 15 15 15 15 15 15 15 16 17 17 18 18 18 19 20 20 21 22 22 22 22 22 23 24 25 25 26 27 27 28 29 30
14 15 15 15 15 15 15 16 16 16 17 17 17 17 17 17 17 17 17 18 19 19 20 20 21 21 22 23 23 24 24 24 25 25 26 26 27 28 28 29 30 30 31
16 16 16 16 16 16 17 17 17 17 18 18 18 18 18 18 18 19 19 20 21 21 21 22 22 23 24 24 25 25 25 26 27 27 27 28 28 29 30 31 32 32 33
17 17 17 17 17 17 17 17 18 18 19 19 18 19 19 19 20 20 21 21 22 22 23 23 24 25 25 25 26 26 27 28 28 29 29 29 30 31 32 32 33 34 34
17 17 17 18 18 18 18 19 19 19 19 20 20 20 20 21 21 21 22 23 23 24 24 24 25 25 26 27 27 28 29 29 30 30 31 31 32 33 34 34 35 36 37
18 19 19 19 19 19 19 19 19 19 20 20 21 22 22 22 23 23 24 25 25 25 26 26 26 27 27 28 29 30 30 31 31 32 33 34 35 36 36 37 38 38 39
19 19 19 19 19 19 19 19 20 20 21 21 22 23 24 24 24 25 26 26 26 27 27 28 29 29 29 30 31 32 33 33 34 34 35 36 37 38 38 39 40 41 41
19 19 19 19 20 20 20 21 21 22 22 23 23 24 25 26 27 27 28 28 28 29 30 30 31 31 32 33 34 35 35 36 36 37 39 39 40 41 41 42 42 43 44
19 19 19 20 20 20 21 22 22 23 23 24 25 26 27 28 29 29 29 30 30 31 32 32 33 34 35 35 36 37 37 38 39 40 41 42 42 43 43 43 44 45 45
Wind_Direction
338 343 345 346 351 358 357 357 358 358 341 332 328 318 291 274 267 270 272 273 275 271 265 260 256 252 250 252 252 251 253 253 254 255 256 258 258 257 256 254 254 253 253
337 342 345 351 356 357 355 353 349 344 341 338 335 325 314 295 282 280 279 280 278 274 271 264 258 253 253 254 256 256 258 257 257 258 259 260 260 259 257 256 254 253 253
323 337 342 347 351 350 351 347 341 334 330 330 330 323 312 300 293 291 286 283 282 278 273 271 266 262 257 256 257 259 260 260 263 263 264 264 263 260 256 253 252 253 253
306 323 331 338 343 344 342 339 338 332 324 322 325 320 310 300 293 291 287 282 283 279 276 274 272 269 265 259 259 260 260 262 266 269 270 269 265 260 256 254 254 255 253
301 308 317 326 332 334 333 334 335 330 325 321 324 322 315 306 300 297 292 288 285 283 280 277 274 272 270 266 264 263 262 263 268 271 271 271 268 260 255 254 255 255 254
294 300 306 314 321 324 327 326 330 332 330 326 326 323 320 314 307 303 300 293 288 285 282 281 277 273 271 270 271 270 266 266 269 270 271 271 269 263 259 258 257 256 256
287 296 298 305 311 314 317 316 319 325 326 325 324 322 319 316 309 305 303 296 291 288 286 284 278 274 272 272 272 273 271 269 269 270 271 270 269 266 265 263 259 257 256
290 299 296 296 302 304 305 307 311 314 314 314 315 315 315 315 316 311 308 300 292 286 285 282 279 278 277 277 277 276 275 273 272 270 269 269 268 267 265 264 262 260 258
288 297 300 297 299 297 298 300 304 304 303 304 305 307 307 309 313 315 312 305 299 294 289 284 280 282 282 281 282 281 278 274 272 270 269 267 266 265 264 264 263 263 262
283 289 292 295 295 293 297 299 300 301 300 301 303 305 304 304 306 308 308 307 303 300 297 291 290 288 286 286 286 287 285 281 277 273 271 271 270 268 264 264 265 264 263
277 281 284 290 293 295 297 297 299 299 298 299 301 303 303 303 303 304 305 304 302 300 298 296 296 296 291 288 288 288 286 284 280 276 277 275 272 271 266 266 266 266 266
270 276 281 285 290 294 296 296 297 298 299 299 300 299 299 300 301 302 302 303 301 300 298 297 297 299 298 293 289 288 286 285 284 281 278 276 275 275 274 272 272 272 272
270 275 280 282 287 292 292 292 295 298 299 299 299 300 299 298 298 299 299 300 301 301 300 298 298 299 300 297 294 291 288 286 285 284 282 279 278 277 277 276 274 274 274
271 275 279 283 284 287 290 292 294 298 299 300 300 298 297 297 297 297 298 299 299 299 299 299 299 300 301 299 296 294 290 288 286 284 282 280 280 279 278 278 276 275 274
272 276 279 282 285 286 289 293 294 295 297 298 299 297 297 298 299 297 297 297 298 298 297 297 297 298 300 301 300 296 293 289 287 284 282 280 279 279 278 278 276 275 273
275 278 278 282 283 285 288 292 294 295 297 297 297 297 297 297 298 300 300 297 296 297 297 297 297 297 297 298 298 297 294 292 289 285 283 281 281 281 280 278 277 275 274
277 276 279 283 284 286 289 291 292 294 295 295 295 297 298 298 297 298 297 296 295 295 294 295 295 295 295 295 296 296 296 295 292 289 286 283 281 281 281 279 279 277 276
274 278 280 282 284 287 289 291 292 294 293 293 294 295 296 298 298 298 298 297 297 296 294 294 294 294 294 294 294 295 295 294 293 291 289 286 284 283 282 282 281 280 278
274 278 280 282 284 286 288 290 291 292 292 290 291 291 293 293 294 295 296 296 296 295 295 294 295 294 293 293 294 294 293 293 293 293 291 288 287 285 284 284 284 282 281
275 278 280 282 283 285 288 289 289 290 290 289 289 290 291 292 292 293 294 295 295 294 295 295 295 294 294 293 294 294 293 292 292 292 291 291 289 287 286 286 285 284 283
276 277 279 281 283 284 286 287 288 288 289 289 290 290 290 291 291 291 293 294 295 295 295 294 294 295 294 294 294 294 294 293 292 292 292 292 291 290 288 288 287 285 283
275 277 279 282 283 284 286 288 288 287 288 289 288 289 290 289 289 290 292 293 295 295 295 295 295 296 295 294 294 295 295 294 293 292 292 292 291 290 289 288 288 286 284
274 276 278 281 283 284 285 287 289 288 288 289 290 290 290 289 291 291 292 292 293 293 295 296 296 296 296 294 294 295 295 294 293 293 292 292 292 292 290 290 289 288 287
275 278 279 280 282 284 285 286 289 290 290 290 291 291 290 290 290 291 292 292 292 294 294 295 296 296 295 294 294 295 294 293 293 293 293 293 293 293 292 291 290 289 288
276 277 279 280 281 283 285 286 288 290 291 291 291 291 291 290 289 290 291 291 292 293 294 295 296 296 297 296 295 294 294 293 293 294 293 293 293 292 292 291 290 289 288
277 277 279 281 282 283 284 287 289 290 291 291 291 292 292 291 291 290 291 292 293 293 294 295 295 295 296 296 296 295 294 293 293 293 293 293 293 292 292 291 290 289 289